Resolute,

6:13 AM CDT on May 20, 2018 (GMT -0500)
Resolute

Weather History for CYRB - August, 2013

Change the Weather History Date:

Wednesday, August 21, 2013

  Actual Average Record
Temperature  
Mean Temperature 26 °F -  
Max Temperature 29 °F 31 °F 50 °F (2007)
Min Temperature 23 °F 23 °F 23 °F (2013)
Degree Days  
Heating Degree Days 39    
Moisture  
Dew Point 23 °F    
Average Humidity 87    
Maximum Humidity 100    
Minimum Humidity 69    
Precipitation  
Precipitation 0.02 in 0.03 in - ()
Sea Level Pressure  
Sea Level Pressure 29.45 in    
Wind  
Wind Speed 15 mph ()    
Max Wind Speed 21 mph    
Max Gust Speed -    
Visibility 9.1 miles    
Events Snow    
Averages and records for this station are not official NWS values.
T = Trace of Precipitation, MM = Missing Value Source: Averaged Metar Reports

Daily Weather History Graph

Daily Weather History Graph

Search for Another Location

Airport or City:

Astronomy

Aug. 21, 2013 Rise Set
Actual Time 3:36 AM CDT 11:01 PM CDT
Civil Twilight Sun does not set Sun does not set
Nautical Twilight Sun does not set Sun does not set
Astronomical Twilight Sun does not set Sun does not set
Moon 8:53 PM CDT (8/21) 6:04 AM CDT (8/21)
Length of Visible Light 24h 00m
Length of Day
19h 25m
Waxing Gibbous, 99% of the Moon is Illuminated
Aug 21
Waxing Gibbous
Aug 28
Last Quarter
Sep 5
New
Sep 12
First Quarter
Sep 19
Full

Hourly Weather History & Observations

Time (CDT) Temp. Windchill Dew Point Humidity Pressure Visibility Wind Dir Wind Speed Gust Speed Precip Events Conditions
12:00 AM 28.4 °F 16.2 °F 24.8 °F 86% 29.46 in 15.0 mi SSW 17.3 mph - N/A   Overcast
12:23 AM - - - N/A% - 3.0 mi SSW 18.4 mph - N/A   Unknown
12:47 AM - - - N/A% - 10.0 mi SSW 15.0 mph - N/A   Unknown
1:00 AM 28.4 °F 16.6 °F 24.8 °F 86% 29.44 in 10.0 mi South 16.1 mph - N/A Snow Light Snow
2:00 AM 28.4 °F 16.6 °F 26.6 °F 93% 29.43 in 3.0 mi SSW 16.1 mph - N/A Snow Light Snow
3:00 AM 28.4 °F 17.5 °F 26.6 °F 93% 29.41 in 2.0 mi South 13.8 mph - N/A Snow Light Snow
4:00 AM 28.4 °F 16.6 °F 26.6 °F 93% 29.40 in 2.0 mi South 16.1 mph - N/A Snow Light Snow
5:00 AM 28.4 °F 16.6 °F 28.4 °F 100% 29.38 in 2.0 mi South 16.1 mph - N/A Snow Light Snow
6:00 AM 28.4 °F 16.6 °F 28.4 °F 100% 29.37 in 1.0 mi South 16.1 mph - N/A Snow Light Snow
6:21 AM - - - N/A% - 2.0 mi South 18.4 mph - N/A   Unknown
7:00 AM 28 °F - 28 °F 99% 29.36 in 1 mi SSW 18.4 mph - - Snow Light Snow
7:00 AM 28.4 °F 15.8 °F 28.4 °F 100% 29.36 in 1.0 mi South 18.4 mph - N/A Snow Light Snow
7:26 AM - - - N/A% - 4.0 mi SSW 19.6 mph - N/A   Unknown
8:00 AM 28.4 °F 16.2 °F 28.4 °F 100% 29.36 in 6.0 mi SSW 17.3 mph - N/A Snow Light Snow
8:44 AM - - - N/A% - 10.0 mi SW 13.8 mph - N/A   Unknown
9:00 AM 28.4 °F 17.0 °F 28.4 °F 100% 29.36 in 10.0 mi SW 15.0 mph - N/A Snow Light Snow
10:00 AM 28.4 °F 17.0 °F 28.4 °F 100% 29.37 in 3.0 mi West 15.0 mph - N/A Snow Light Snow
11:00 AM 26.6 °F 13.4 °F 24.8 °F 93% 29.38 in 15.0 mi West 18.4 mph - N/A Snow Light Snow
12:00 PM 26.6 °F 13.4 °F 23.0 °F 86% 29.40 in 15.0 mi WNW 18.4 mph - N/A Snow Light Snow Showers
1:00 PM 25 °F - 21 °F 78% 29.43 in 15 mi WNW 16.1 mph - - Snow Light Snow Showers
1:00 PM 24.8 °F 11.9 °F 21.2 °F 86% 29.43 in 15.0 mi WNW 16.1 mph - N/A Snow Light Snow Showers
1:30 PM - - - N/A% - 15.0 mi WNW 18.4 mph - N/A   Overcast
2:00 PM 24.8 °F 11.1 °F 19.4 °F 80% 29.46 in 15.0 mi WNW 18.4 mph - N/A   Overcast
3:00 PM 24.8 °F 10.3 °F 19.4 °F 80% 29.49 in 15.0 mi NW 20.7 mph - N/A   Overcast
4:00 PM 24.8 °F 12.9 °F 17.6 °F 74% 29.50 in 15.0 mi WNW 13.8 mph - N/A   Overcast
5:00 PM 24.8 °F 11.5 °F 15.8 °F 69% 29.52 in 15.0 mi WNW 17.3 mph - N/A   Overcast
6:00 PM 24.8 °F 11.1 °F 19.4 °F 80% 29.53 in 15.0 mi West 18.4 mph - N/A   Overcast
7:00 PM 24 °F - 18 °F 71% 29.55 in 15 mi West 12.7 mph - -   Partly Cloudy
7:00 PM 23.0 °F 11.1 °F 19.4 °F 86% 29.55 in 15.0 mi West 12.7 mph - N/A   Overcast
8:00 PM 24.8 °F 12.4 °F 17.6 °F 74% 29.55 in 15.0 mi WSW 15.0 mph - N/A   Overcast
8:26 PM - - - N/A% - 15.0 mi WSW 15.0 mph - N/A Snow Light Snow Grains
9:00 PM 24.8 °F 13.4 °F 19.4 °F 80% 29.55 in 15.0 mi SW 12.7 mph - N/A Snow Light Snow Grains
9:46 PM - - - N/A% - 10.0 mi SSW 15.0 mph - N/A   Overcast
10:00 PM 24.8 °F 11.5 °F 17.6 °F 74% 29.55 in 7.0 mi SSW 17.3 mph - N/A   Overcast
10:15 PM - - - N/A% - 10.0 mi SW 15.0 mph - N/A   Unknown
10:40 PM - - - N/A% - 1.8 mi SW 15.0 mph - N/A   Unknown
11:00 PM 23.0 °F 9.6 °F 21.2 °F 93% 29.54 in 2.5 mi SSW 16.1 mph - N/A Snow Light Snow
11:30 PM - - - N/A% - 3.0 mi SW 17.3 mph - N/A   Unknown
11:49 PM - - - N/A% - 10.0 mi SW 13.8 mph - N/A   Unknown